Temp
85 91 93 95 80 79 61 61 66 83 90 97 96 87 77 69 63 65 95 94 92 86 84 84 81 81 81 80 80 80 80 80 80 80 80 80 80 80 81 81 81 81 82 82 82 82 82 82 82
98 101 99 93 76 58 54 64 67 86 94 97 95 91 84 78 89 89 92 94 91 87 86 83 81 81 81 80 81 80 80 80 80 80 80 80 80 80 81 81 81 82 82 82 82 82 81 81 81
92 100 90 85 79 64 61 64 62 78 96 95 91 92 86 81 90 92 96 94 92 90 88 82 81 80 81 81 81 80 80 80 80 80 80 80 80 80 80 80 81 81 82 82 82 81 81 81 81
98 99 95 78 76 66 66 65 73 88 95 97 90 79 88 95 93 95 98 96 94 90 86 81 81 81 81 81 80 80 80 80 80 80 80 80 80 80 80 80 80 81 81 81 81 81 81 81 80
100 94 81 79 82 76 79 67 71 90 92 93 90 81 79 91 96 97 96 97 94 89 86 83 81 80 80 80 80 80 80 80 80 80 80 80 80 80 80 80 80 80 81 81 81 81 80 80 80
89 92 77 76 83 80 86 91 88 70 76 92 85 81 80 93 93 96 98 97 96 89 86 82 81 81 80 80 80 80 80 80 80 80 80 80 80 80 79 80 80 80 80 80 80 80 80 80 80
86 84 79 82 83 87 93 99 94 67 83 90 90 80 81 90 95 97 98 99 96 92 86 83 83 81 80 79 80 80 80 80 80 79 79 79 80 80 80 80 80 80 80 80 80 80 80 79 80
93 88 81 84 84 81 78 96 98 93 75 98 94 77 75 89 95 98 98 96 95 92 90 87 84 84 82 81 79 79 80 80 79 80 80 80 80 80 80 80 79 80 80 80 80 80 80 80 80
98 81 77 82 85 90 96 93 99 98 88 94 95 90 89 94 96 95 94 92 92 91 91 91 90 88 89 87 82 79 80 80 80 80 79 79 82 84 84 82 80 80 80 80 81 81 80 80 80
88 80 81 91 94 91 94 95 94 91 90 90 88 91 93 92 92 92 91 89 89 89 91 93 93 91 92 91 82 83 83 83 82 84 82 81 85 86 89 85 80 80 80 80 81 81 81 81 85
88 81 89 92 96 98 94 91 85 90 86 90 84 86 89 90 90 90 92 91 89 90 92 93 90 87 92 92 86 88 88 86 85 88 87 85 87 86 86 86 83 81 80 84 82 83 83 88 87
82 90 90 91 96 96 94 92 71 67 87 81 89 89 89 87 89 90 91 91 91 91 91 92 91 86 89 92 89 89 90 89 87 86 85 81 83 83 85 87 83 84 84 86 85 87 85 85 86
85 88 92 94 95 95 97 92 80 79 80 77 80 88 88 89 90 93 94 94 92 91 92 93 89 86 88 88 87 88 88 89 87 85 85 85 83 82 85 84 84 84 84 84 83 83 82 83 85
90 88 89 93 93 94 91 91 93 72 70 77 87 87 89 90 91 92 91 89 88 89 89 91 89 84 88 85 86 85 85 84 85 83 80 83 80 79 81 82 82 81 81 81 81 80 79 80 82
91 82 87 88 89 90 94 86 87 83 80 86 87 88 89 90 92 88 89 85 87 87 86 85 87 86 84 85 85 85 84 86 82 79 79 80 77 78 77 80 79 76 77 80 78 78 78 78 81
84 83 74 84 89 90 89 76 89 92 86 84 85 87 87 89 89 88 88 85 85 85 83 84 89 85 80 81 83 84 83 82 80 79 77 78 78 76 76 78 74 74 75 76 73 73 74 73 73
81 71 74 79 89 88 84 78 87 93 86 82 83 86 86 86 85 85 86 85 82 81 80 81 83 81 80 79 81 80 79 79 78 78 76 76 76 76 74 72 72 71 73 72 70 71 71 70 69
72 74 78 77 85 87 82 80 86 91 86 82 81 82 83 83 82 83 84 83 81 80 78 79 78 75 75 78 77 78 78 77 78 74 72 71 73 73 71 71 70 71 68 67 67 67 70 69 67
76 74 73 81 89 83 80 81 84 86 85 83 80 79 78 80 84 83 82 81 78 78 76 76 73 73 72 72 75 74 74 74 72 70 71 70 70 70 68 70 69 68 65 64 65 65 68 66 65
80 75 73 79 83 82 82 80 85 83 83 85 84 80 78 78 79 80 79 77 76 75 73 72 72 70 72 71 74 73 72 72 71 68 68 68 68 68 68 67 65 65 64 62 62 62 63 64 64
78 74 74 74 81 84 80 77 81 84 85 87 71 69 69 79 78 76 75 75 75 73 73 71 71 70 72 71 71 69 69 68 67 65 66 66 67 67 65 65 64 63 63 61 60 60 61 59 63
71 82 80 77 74 66 81 65 76 81 82 83 75 73 67 77 80 76 74 73 73 73 73 72 69 70 72 71 69 68 67 66 68 67 65 64 66 65 65 64 62 61 62 60 61 62 61 60 60
76 84 80 78 74 72 73 68 74 83 80 83 84 85 88 85 81 77 75 75 76 75 73 70 69 67 67 69 71 68 67 65 67 65 63 62 64 65 66 64 63 62 62 60 60 59 59 61 60
85 80 78 77 73 62 69 69 70 77 80 85 89 88 89 89 85 80 78 77 75 76 74 70 67 65 66 68 68 69 65 65 64 63 62 63 63 63 63 64 62 61 61 60 59 60 59 59 57
77 71 60 58 60 58 72 69 72 80 86 87 88 91 90 90 87 81 77 75 74 73 72 68 66 63 65 66 67 67 67 65 63 63 65 63 63 62 61 62 61 60 60 60 60 59 58 57 56
65 65 55 44 47 52 67 60 70 82 87 84 88 91 91 89 90 69 72 73 74 73 71 68 64 63 66 66 66 66 66 66 65 65 65 66 63 60 61 61 61 61 61 61 61 58 58 58 57
66 60 70 60 61 54 61 67 76 69 66 78 79 81 86 81 76 72 74 71 73 71 69 66 64 65 66 65 65 64 65 63 62 63 65 63 61 61 61 61 60 60 61 61 58 57 57 58 58
72 76 61 58 43 42 56 58 44 48 54 55 63 78 72 73 72 71 72 72 73 70 68 66 66 65 66 65 65 65 63 63 63 63 61 60 60 60 60 60 59 60 60 60 60 57 58 56 57
65 64 64 60 53 39 39 46 52 47 51 49 54 62 71 69 68 71 71 70 70 69 68 65 65 64 65 66 64 63 62 61 62 61 61 61 60 61 60 60 60 59 59 59 57 57 58 57 56
70 65 63 48 47 50 45 45 54 53 53 53 54 58 67 71 72 71 68 69 68 67 66 65 58 59 59 58 57 57 57 57 56 56 58 60 60 62 61 61 60 60 59 58 58 57 58 57 56
MSLP
1007.57 1007.40 1007.22 1005.70 1005.74 1005.54 1007.87 1008.75 1005.53 1002.44 999.91 999.87 1000.70 1002.34 1004.99 1007.02 1008.96 1008.55 1008.67 1009.94 1011.28 1012.71 1013.69 1014.22 1014.74 1015.25 1015.68 1016.03 1016.26 1016.45 1016.65 1016.83 1017.01 1017.25 1017.44 1017.62 1017.73 1017.79 1017.90 1017.93 1017.95 1018.01 1018.02 1017.97 1017.95 1017.92 1017.90 1017.83 1017.76
1006.59 1005.97 1005.50 1004.75 1004.82 1006.99 1008.78 1008.13 1008.62 1003.19 1000.59 1000.54 1001.47 1002.42 1004.50 1006.56 1007.32 1008.09 1008.55 1009.91 1011.40 1012.57 1013.35 1014.29 1014.90 1015.38 1015.79 1016.17 1016.37 1016.59 1016.81 1017.02 1017.27 1017.59 1017.78 1017.89 1018.00 1018.06 1018.08 1018.07 1018.11 1018.14 1018.13 1018.15 1018.11 1018.11 1018.09 1018.00 1017.89
1006.89 1005.88 1004.83 1003.63 1003.60 1006.53 1009.24 1009.01 1007.06 1004.99 1001.25 1000.87 1001.64 1002.99 1004.97 1006.73 1007.57 1007.85 1008.82 1010.16 1011.27 1012.22 1013.28 1014.58 1015.07 1015.58 1015.92 1016.22 1016.52 1016.77 1016.98 1017.25 1017.57 1017.84 1018.05 1018.12 1018.17 1018.25 1018.27 1018.25 1018.25 1018.28 1018.27 1018.27 1018.21 1018.21 1018.16 1018.08 1017.94
1005.76 1004.09 1003.76 1003.10 1002.91 1004.92 1007.11 1008.19 1006.16 1003.93 1001.75 1000.93 1002.25 1004.29 1006.00 1006.49 1007.13 1008.26 1008.90 1010.15 1010.92 1012.14 1013.64 1014.74 1015.23 1015.67 1016.04 1016.43 1016.70 1016.90 1017.13 1017.36 1017.75 1017.98 1018.18 1018.29 1018.32 1018.40 1018.42 1018.36 1018.35 1018.37 1018.33 1018.29 1018.26 1018.14 1018.10 1018.00 1017.86
1005.02 1003.92 1002.68 1001.88 1001.31 1002.56 1003.87 1004.80 1003.48 1001.87 1001.59 1001.72 1002.43 1004.54 1006.25 1006.80 1007.26 1008.26 1008.90 1009.94 1010.71 1012.25 1013.83 1014.76 1015.32 1015.77 1016.17 1016.55 1016.86 1017.08 1017.27 1017.49 1017.79 1018.11 1018.27 1018.38 1018.45 1018.47 1018.58 1018.49 1018.43 1018.39 1018.29 1018.21 1018.16 1018.09 1018.02 1017.87 1017.69
1004.07 1003.18 1002.21 1000.85 999.96 1000.43 1000.44 1001.36 1001.04 1001.99 1002.88 1002.12 1003.35 1004.84 1006.52 1007.00 1007.53 1008.13 1008.72 1009.33 1010.44 1012.34 1013.62 1014.71 1015.37 1015.78 1016.24 1016.66 1016.96 1017.21 1017.39 1017.64 1017.93 1018.13 1018.31 1018.43 1018.53 1018.47 1018.45 1018.41 1018.34 1018.27 1018.19 1018.17 1018.06 1018.01 1017.88 1017.73 1017.53
1003.68 1002.71 1001.41 1000.21 999.27 998.92 998.18 998.67 999.66 1002.94 1002.30 1002.20 1002.66 1004.16 1006.51 1006.77 1007.42 1007.94 1008.55 1009.33 1010.42 1011.99 1013.52 1014.50 1015.19 1015.81 1016.28 1016.72 1017.07 1017.33 1017.58 1017.71 1017.98 1018.12 1018.25 1018.32 1018.38 1018.36 1018.33 1018.30 1018.20 1018.13 1018.01 1017.94 1017.87 1017.84 1017.63 1017.46 1017.21
1003.14 1002.55 1001.21 999.90 998.80 998.74 1000.03 998.32 998.78 999.72 1002.90 1002.30 1002.88 1004.04 1005.78 1006.07 1007.17 1007.78 1008.64 1009.75 1010.62 1011.69 1012.89 1013.80 1014.83 1015.35 1015.98 1016.55 1017.03 1017.32 1017.64 1017.86 1017.96 1018.09 1018.12 1018.10 1018.16 1018.07 1018.16 1018.17 1018.09 1018.04 1017.95 1017.79 1017.69 1017.57 1017.40 1017.20 1017.06
1003.02 1002.17 1000.73 999.69 998.34 997.59 997.96 997.93 998.03 999.53 1001.85 1002.31 1002.25 1003.04 1004.25 1005.86 1006.94 1007.55 1008.48 1009.89 1010.71 1011.69 1012.49 1012.94 1013.77 1014.50 1014.86 1015.70 1016.66 1017.17 1017.44 1017.66 1017.83 1017.84 1017.91 1017.78 1017.81 1017.51 1017.78 1017.82 1017.67 1017.68 1017.65 1017.63 1017.49 1017.23 1016.92 1017.11 1017.11
1002.62 1001.59 1000.34 999.40 997.78 997.42 998.50 997.88 998.16 999.14 1000.25 1001.50 1002.60 1003.30 1004.50 1006.06 1006.86 1007.29 1008.07 1009.23 1010.51 1011.39 1011.94 1012.47 1012.90 1013.67 1013.88 1014.64 1016.15 1016.52 1016.86 1017.04 1017.18 1017.05 1017.26 1017.26 1016.90 1017.01 1017.18 1017.13 1017.52 1017.54 1017.40 1017.43 1017.39 1017.11 1016.83 1016.93 1016.76
1002.06 1001.02 1000.45 999.23 998.06 997.67 997.95 998.84 1001.83 1000.37 1000.70 1001.20 1002.98 1003.90 1004.89 1006.13 1006.95 1007.69 1007.99 1008.96 1010.30 1011.22 1011.57 1012.22 1012.76 1013.57 1013.57 1014.11 1015.30 1015.53 1015.79 1016.05 1016.33 1016.39 1016.76 1016.81 1016.58 1016.63 1016.63 1016.77 1017.28 1017.37 1017.26 1017.35 1017.23 1016.78 1016.95 1016.45 1016.20
1001.50 1000.67 1000.51 999.79 998.42 997.99 997.48 999.13 1000.98 1003.32 1001.97 1002.41 1003.63 1004.96 1004.82 1005.78 1006.71 1007.36 1007.87 1008.84 1009.74 1010.66 1011.37 1012.01 1012.92 1013.69 1013.45 1013.66 1014.30 1014.59 1014.75 1015.16 1015.64 1016.19 1016.63 1016.94 1016.71 1016.63 1016.38 1016.32 1016.83 1016.95 1016.78 1016.57 1016.56 1016.45 1016.55 1016.58 1016.53
1000.92 1000.41 999.96 999.62 998.80 998.20 997.81 998.58 1000.82 1003.13 1002.89 1003.28 1005.51 1005.36 1004.78 1005.49 1006.43 1006.83 1007.34 1008.21 1009.20 1010.10 1010.88 1011.57 1012.63 1013.46 1013.54 1013.79 1013.88 1014.17 1014.54 1014.94 1015.48 1016.06 1016.46 1016.71 1016.63 1016.51 1016.42 1016.62 1016.74 1016.79 1016.87 1017.00 1017.03 1017.06 1017.09 1017.14 1016.81
1000.55 1000.55 1000.02 999.33 998.82 998.33 998.20 998.55 999.64 1002.81 1003.58 1003.07 1004.06 1003.92 1005.07 1005.28 1005.91 1006.46 1007.18 1008.24 1009.35 1010.20 1011.15 1011.69 1012.71 1013.60 1013.62 1014.03 1014.06 1014.48 1014.77 1015.39 1015.66 1016.22 1017.00 1017.10 1017.28 1017.20 1016.94 1016.89 1017.07 1017.34 1017.58 1017.65 1017.63 1017.51 1017.53 1017.45 1017.18
1000.50 1000.56 999.96 999.48 999.16 998.52 998.52 998.31 999.29 1001.79 1003.94 1002.29 1003.10 1004.09 1004.86 1005.21 1005.71 1006.77 1007.80 1008.94 1009.88 1010.60 1011.53 1012.11 1012.71 1013.50 1013.94 1014.30 1014.51 1014.82 1015.13 1015.51 1015.99 1016.99 1017.60 1017.79 1017.97 1017.71 1017.78 1017.40 1017.60 1018.20 1018.39 1018.16 1018.10 1018.02 1017.75 1017.62 1017.42
1000.36 1000.49 1000.03 999.64 998.98 998.70 999.02 998.29 998.79 1000.30 1001.51 1002.71 1003.67 1004.31 1004.73 1004.96 1005.88 1007.21 1008.22 1009.58 1010.39 1011.07 1011.86 1012.56 1012.70 1013.70 1014.30 1014.61 1014.96 1015.17 1015.56 1015.86 1016.51 1017.33 1018.07 1018.28 1018.27 1018.39 1018.01 1017.77 1018.41 1018.95 1018.68 1018.42 1018.63 1018.62 1018.31 1018.20 1018.11
1000.00 999.82 999.49 998.99 998.58 998.45 998.92 998.57 998.90 999.29 1000.52 1001.86 1003.07 1004.00 1004.16 1004.91 1006.14 1007.43 1008.52 1009.72 1010.76 1011.58 1012.42 1012.96 1013.20 1014.03 1014.74 1015.07 1015.27 1015.62 1016.21 1016.47 1017.00 1017.51 1018.26 1018.77 1018.79 1018.72 1018.47 1018.68 1019.05 1019.34 1018.88 1019.06 1019.21 1018.96 1018.82 1018.75 1018.55
999.65 999.02 998.30 997.54 997.39 997.20 998.12 998.37 998.92 998.65 999.88 1001.01 1002.33 1003.71 1004.37 1004.94 1005.93 1007.15 1008.25 1009.69 1010.93 1011.84 1012.69 1013.25 1013.88 1014.49 1015.11 1015.56 1015.69 1016.14 1016.56 1016.88 1017.36 1018.15 1018.86 1019.44 1019.34 1019.28 1018.99 1019.04 1019.46 1019.40 1019.64 1019.99 1020.04 1019.56 1019.05 1018.90 1019.07
1000.39 999.68 998.86 997.61 996.70 996.87 997.52 997.80 998.05 998.84 999.95 1001.00 1002.22 1003.82 1004.72 1005.34 1006.52 1007.57 1008.29 1009.62 1011.00 1011.92 1012.75 1013.30 1014.21 1014.84 1015.48 1015.95 1015.91 1016.31 1016.67 1017.39 1018.12 1018.96 1019.31 1019.72 1019.78 1019.65 1019.52 1019.35 1019.56 1019.91 1020.21 1020.62 1020.73 1020.06 1019.47 1019.06 1019.31
999.41 999.08 998.82 998.36 997.72 997.33 996.74 996.83 997.25 997.91 999.28 1000.43 1001.41 1002.93 1004.60 1005.80 1006.18 1007.95 1008.99 1009.53 1010.79 1011.84 1012.77 1013.66 1014.24 1015.03 1015.62 1016.14 1016.10 1016.34 1016.68 1017.56 1018.32 1019.40 1019.79 1020.11 1020.17 1019.96 1020.01 1019.87 1020.13 1020.39 1020.55 1020.66 1021.07 1020.84 1020.30 1019.64 1019.56
999.28 999.31 998.95 998.63 998.07 997.37 997.28 996.84 996.81 997.29 998.32 999.50 1001.00 1003.39 1004.47 1004.90 1005.36 1007.03 1008.94 1009.42 1010.62 1011.72 1012.58 1013.48 1014.14 1015.05 1015.54 1015.75 1016.19 1016.68 1017.30 1018.24 1018.80 1019.68 1020.01 1020.42 1020.39 1020.55 1020.57 1020.54 1020.62 1020.68 1020.65 1021.12 1021.16 1021.45 1021.03 1020.63 1019.97
999.20 999.18 998.87 998.73 998.60 997.97 997.56 996.56 996.49 997.00 997.44 998.46 1000.28 1001.90 1002.86 1004.11 1004.40 1006.37 1007.48 1008.56 1009.96 1011.49 1012.61 1013.28 1014.19 1014.97 1015.58 1015.94 1016.28 1016.78 1017.37 1017.96 1018.35 1019.07 1020.10 1020.64 1020.72 1020.92 1020.98 1020.99 1021.17 1021.28 1021.41 1021.49 1021.53 1021.58 1021.29 1020.97 1020.70
999.11 999.05 998.92 998.85 998.60 998.21 997.79 997.42 996.31 995.91 995.68 996.12 997.25 998.24 999.73 1001.12 1003.19 1005.36 1007.07 1007.78 1009.02 1010.71 1012.13 1013.35 1014.24 1015.18 1015.74 1016.02 1016.46 1016.90 1017.50 1018.00 1018.43 1019.50 1020.27 1020.87 1020.99 1021.02 1021.11 1021.27 1021.31 1021.35 1021.49 1021.85 1022.16 1022.11 1021.89 1021.64 1021.56
999.38 999.28 999.23 999.37 999.25 998.19 998.13 997.41 996.20 995.67 995.00 994.80 994.86 995.76 996.94 998.54 1000.76 1003.05 1005.20 1007.49 1008.66 1010.03 1011.76 1013.24 1014.54 1015.41 1016.13 1016.45 1016.85 1017.04 1017.54 1017.95 1018.78 1019.66 1020.30 1020.61 1021.04 1021.30 1021.47 1021.62 1021.68 1021.67 1021.95 1022.36 1022.46 1022.40 1022.61 1022.60 1022.49
1000.67 1000.33 999.90 999.59 999.17 997.97 997.97 997.23 996.14 995.77 995.02 994.64 994.49 994.36 995.28 996.94 998.35 1000.98 1004.19 1007.59 1009.13 1009.78 1011.69 1013.50 1014.80 1015.79 1016.46 1016.95 1017.28 1017.63 1017.93 1018.34 1019.04 1019.69 1019.66 1020.08 1020.63 1021.34 1021.79 1021.88 1022.01 1022.33 1022.45 1022.66 1022.76 1022.82 1023.07 1023.11 1022.86
1003.45 1003.18 1002.45 1001.83 1001.30 1000.55 999.82 998.58 997.98 996.83 995.79 996.48 995.49 994.71 994.88 996.64 998.42 1001.66 1006.15 1006.66 1009.21 1010.19 1012.28 1013.81 1015.05 1016.17 1016.86 1017.49 1018.02 1018.44 1018.75 1019.03 1019.41 1019.76 1019.68 1019.75 1020.65 1021.65 1022.11 1022.38 1022.57 1022.70 1022.74 1022.77 1022.88 1023.22 1023.24 1023.04 1023.26
1003.51 1003.62 1003.10 1002.45 1002.91 1002.93 1002.00 1000.83 1000.54 1000.56 1000.50 999.35 998.82 998.22 997.54 998.09 1000.56 1003.35 1006.65 1008.71 1008.86 1010.48 1012.66 1014.45 1015.54 1016.40 1017.17 1017.97 1018.53 1018.98 1019.21 1019.54 1019.90 1020.19 1020.23 1020.70 1021.17 1021.90 1022.39 1022.70 1022.92 1023.01 1022.99 1022.96 1023.16 1023.40 1023.29 1023.47 1023.40
1003.71 1003.40 1002.96 1004.41 1005.50 1005.20 1004.16 1004.50 1006.75 1007.01 1006.48 1005.42 1004.30 1002.46 1001.74 1001.65 1002.77 1005.12 1006.98 1008.26 1009.70 1011.72 1013.85 1014.85 1015.92 1016.69 1017.49 1018.24 1018.86 1019.35 1019.90 1020.33 1020.71 1020.87 1021.02 1021.33 1021.84 1022.32 1022.66 1022.90 1023.04 1023.00 1023.04 1022.98 1023.01 1023.53 1023.59 1023.74 1023.76
1004.62 1004.36 1004.67 1005.86 1007.23 1007.99 1008.15 1009.09 1011.21 1011.74 1010.96 1010.50 1009.34 1007.17 1004.95 1005.90 1005.49 1005.73 1007.58 1009.49 1011.14 1012.74 1013.97 1015.08 1016.15 1017.16 1017.84 1018.29 1018.95 1019.72 1020.49 1020.97 1021.29 1021.62 1021.80 1021.95 1022.27 1022.58 1022.93 1023.10 1023.27 1023.36 1023.39 1023.44 1023.53 1023.52 1023.74 1024.23 1024.40
1005.64 1005.69 1006.08 1007.11 1008.29 1009.45 1010.47 1011.13 1012.58 1012.72 1012.92 1012.31 1011.66 1010.46 1008.39 1006.19 1006.96 1007.51 1008.33 1010.17 1011.97 1012.92 1014.23 1015.69 1017.23 1018.20 1018.96 1019.51 1020.03 1020.69 1021.42 1022.06 1022.34 1022.51 1022.72 1022.68 1022.85 1022.90 1023.03 1023.21 1023.38 1023.54 1023.76 1023.85 1023.94 1023.99 1024.14 1024.31 1024.40
Wind_Speed
9 11 11 11 8 3 6 4 28 19 16 15 17 21 20 17 10 10 11 22 23 19 16 16 14 14 14 14 13 11 10 11 12 12 13 12 11 11 10 10 11 10 10 10 10 9 8 8 8
10 15 13 11 12 6 2 20 23 11 15 17 11 24 22 18 14 16 16 24 22 18 15 15 15 15 14 13 12 11 10 12 13 12 12 11 10 10 10 10 9 9 9 8 8 7 6 6 5
11 14 11 10 14 5 1 18 21 32 13 14 17 18 9 13 19 16 19 24 20 18 17 14 16 14 15 14 13 10 11 13 12 12 11 10 10 9 8 8 8 8 7 7 6 5 5 4 4
8 9 10 11 20 10 15 10 28 18 6 10 21 16 12 13 18 19 20 22 20 21 18 15 17 15 15 13 11 11 12 13 12 11 10 9 8 7 7 7 6 5 5 4 3 3 3 4 4
12 9 13 18 25 21 24 39 36 20 11 11 21 16 11 3 21 20 21 18 19 21 17 16 16 15 14 13 12 11 11 11 12 9 9 8 6 6 4 4 3 3 3 3 3 4 4 5 5
12 12 16 18 12 8 26 31 15 28 24 21 21 18 10 14 19 19 18 18 24 19 17 15 14 15 13 13 11 10 10 10 9 8 7 5 4 3 2 1 1 3 3 4 5 6 6 6 6
15 13 19 24 18 8 9 7 7 31 30 8 24 15 13 18 18 17 18 14 20 21 17 14 14 13 14 12 11 10 9 10 8 7 5 4 5 6 6 4 2 3 4 5 5 7 7 8 8
14 14 23 21 18 6 20 2 8 12 13 12 17 9 15 20 19 17 19 16 15 20 18 16 14 13 12 11 12 10 9 8 8 6 6 7 8 9 9 8 4 1 0 2 4 6 8 10 10
20 15 16 22 24 6 4 8 9 19 25 11 4 18 26 25 21 18 19 18 12 13 14 16 16 14 14 14 11 10 10 9 8 8 10 9 7 9 10 8 8 7 6 6 7 9 11 9 10
17 15 22 23 24 8 6 6 10 8 14 15 20 26 27 24 21 19 19 18 15 16 16 14 14 13 15 13 12 9 10 8 8 9 8 8 9 4 8 7 9 9 9 8 9 12 12 8 6
20 19 19 24 26 17 7 7 12 13 11 17 21 24 25 23 19 18 17 17 16 17 11 13 12 8 11 9 9 6 7 7 6 3 1 4 4 3 4 4 5 5 9 5 6 8 4 5 6
21 22 19 26 29 27 16 6 15 32 12 25 18 20 23 22 19 18 16 17 19 17 13 14 13 8 8 7 8 8 6 5 5 6 5 3 2 5 3 2 5 6 3 2 3 4 5 6 7
19 20 19 21 24 26 12 15 20 27 17 26 10 19 21 19 19 18 17 15 14 15 13 15 13 7 1 2 2 1 3 2 7 4 4 3 4 3 3 4 4 4 5 5 5 5 5 5 7
15 15 21 19 24 19 18 17 19 2 15 20 24 21 19 20 18 14 15 13 11 10 11 11 13 7 6 3 4 2 3 4 3 6 7 6 5 5 5 3 3 5 5 5 5 5 4 4 5
17 17 19 18 21 19 16 22 18 24 28 22 20 19 19 18 17 15 13 11 9 9 10 10 10 10 4 4 4 2 3 4 5 7 5 4 6 4 4 3 4 6 5 5 5 5 5 4 6
11 16 16 18 20 18 16 21 17 18 20 21 19 20 20 18 17 15 14 12 9 10 8 8 8 10 5 6 3 3 4 4 5 5 5 5 4 5 5 3 6 5 5 3 4 4 4 4 4
16 13 19 20 20 20 19 20 16 15 20 19 18 17 18 18 16 14 16 13 12 10 9 6 6 11 6 5 3 5 5 4 4 4 6 4 5 5 5 6 6 5 4 5 4 4 4 4 4
18 16 12 15 20 21 18 20 18 21 19 20 19 16 16 18 19 18 18 15 12 12 10 7 7 10 8 4 4 5 3 4 4 7 6 6 4 5 6 6 4 5 7 7 5 5 2 1 4
18 20 19 20 14 20 20 20 19 17 18 20 22 20 19 17 16 16 15 15 14 12 12 10 11 10 7 2 5 6 6 5 6 6 5 5 5 6 6 5 4 5 6 5 6 6 3 5 4
20 17 16 13 19 17 13 20 18 21 21 20 22 24 23 19 21 16 15 15 14 12 13 10 11 10 8 6 5 2 5 5 7 6 5 5 4 5 5 4 5 5 5 6 6 8 4 2 4
14 15 16 18 18 19 18 20 16 17 23 21 5 6 9 17 23 21 18 15 14 13 11 13 9 10 7 6 6 7 8 5 5 5 5 4 5 6 5 6 5 4 5 5 5 6 6 4 3
16 18 19 19 17 14 18 15 17 18 19 23 22 27 32 37 21 21 22 18 16 13 8 10 11 10 7 6 6 8 5 6 5 6 6 5 4 6 5 5 5 4 5 5 4 5 5 4 4
17 18 18 17 19 20 20 15 18 17 22 25 29 27 29 27 26 24 20 18 17 14 12 6 9 9 6 3 2 6 5 6 6 8 6 6 3 4 6 5 5 5 5 5 5 6 8 6 4
18 17 17 15 17 17 19 20 17 18 19 19 21 27 26 26 28 27 23 19 15 14 11 10 8 6 5 4 5 4 7 6 8 7 6 6 6 4 5 6 5 5 5 5 5 5 7 5 6
21 15 12 15 15 15 20 20 16 21 21 20 21 15 25 24 27 27 26 18 15 16 15 12 9 8 6 5 5 6 6 8 8 6 5 7 6 6 4 4 4 4 5 5 4 4 4 5 5
21 18 10 9 15 19 24 15 13 14 6 18 17 1 12 21 16 21 14 19 19 18 15 15 11 8 8 7 7 6 6 4 5 2 5 1 8 7 5 5 4 4 4 4 3 4 4 4 5
19 14 21 19 18 17 15 22 20 32 37 21 18 19 9 14 26 28 22 17 17 18 15 15 12 11 10 9 8 6 4 9 9 6 4 8 9 7 5 5 4 4 3 4 6 4 4 3 4
18 18 17 6 8 11 12 11 11 27 29 32 35 16 23 21 26 20 15 16 17 18 15 14 13 11 11 10 8 7 8 8 6 5 8 9 9 8 5 5 4 4 4 4 3 4 4 5 4
18 16 17 2 3 3 9 5 12 17 21 23 29 31 14 11 16 20 17 17 19 18 16 12 13 12 11 10 11 10 9 8 6 5 5 6 7 4 5 4 4 4 4 4 4 4 5 5 4
17 14 11 7 11 8 10 8 9 13 20 18 23 27 26 15 16 19 20 19 16 16 15 11 16 16 15 14 14 12 11 8 7 8 8 5 5 3 4 4 4 5 5 4 4 6 4 4 3
Wind_Direction
240 234 227 241 256 341 18 87 278 285 89 89 67 85 105 124 204 124 124 111 119 121 126 124 122 123 120 114 113 113 115 109 103 97 92 92 91 86 79 74 71 72 71 69 65 62 58 55 55
271 281 235 260 258 118 240 274 272 273 104 100 104 114 94 88 114 127 132 117 117 131 125 130 128 127 124 125 123 119 113 106 100 96 96 95 86 80 74 70 67 67 67 64 62 56 49 47 44
267 267 272 243 249 60 205 248 265 269 127 143 109 75 69 109 123 133 125 117 129 128 121 127 133 128 128 129 124 121 112 103 100 103 101 95 90 82 74 70 64 62 58 53 52 41 33 23 21
268 274 230 258 261 177 196 272 246 228 150 130 95 93 88 119 129 128 131 126 137 119 125 127 135 132 131 131 129 119 114 112 109 108 106 99 91 79 70 62 57 56 57 53 26 19 358 349 349
247 262 276 263 263 181 214 185 244 178 134 121 113 112 103 95 108 141 129 143 134 117 128 135 138 132 131 131 125 115 110 110 113 113 108 105 98 86 70 58 44 14 10 353 335 320 316 311 312
257 248 261 270 284 33 215 195 94 67 309 112 107 120 107 121 136 144 140 152 124 127 133 138 137 134 131 133 128 120 114 111 115 115 112 109 110 118 141 138 298 315 309 303 300 296 291 289 286
245 260 258 265 273 263 296 153 179 148 201 164 137 113 136 147 139 151 140 137 119 130 134 138 141 144 130 133 135 135 128 124 128 131 141 164 189 195 206 194 259 298 311 300 292 282 275 270 259
246 254 266 275 279 296 306 270 153 90 33 92 126 149 156 153 152 152 136 130 153 135 144 151 148 154 157 152 148 145 146 146 152 166 190 216 227 221 210 192 175 145 173 272 280 278 274 268 270
251 252 257 263 269 246 134 239 160 115 145 170 160 147 148 142 153 158 147 144 159 135 156 157 159 160 169 155 159 162 168 174 189 201 223 227 232 212 198 178 168 182 198 207 229 246 254 256 268
236 248 249 261 269 351 329 260 150 158 145 136 88 116 136 148 164 158 160 147 152 153 172 146 170 165 173 155 151 182 180 192 198 198 185 220 227 154 166 199 177 205 221 218 236 253 257 255 247
239 243 257 263 269 303 167 233 15 203 174 150 126 133 143 153 160 161 178 150 155 169 167 169 131 167 169 146 160 186 176 196 199 187 168 271 342 187 214 194 183 211 225 225 229 250 249 8 337
252 241 241 265 281 294 261 135 86 292 80 61 130 147 150 163 164 167 169 163 165 166 168 153 149 185 187 183 168 186 182 178 168 180 152 241 252 257 246 13 176 226 90 334 320 350 34 360 331
241 260 250 254 269 275 293 284 178 210 104 127 199 167 158 165 172 173 168 163 152 162 159 155 140 172 223 334 156 223 140 133 123 135 117 344 306 20 13 42 350 360 24 358 2 345 18 329 306
252 255 274 257 263 268 270 268 264 122 70 162 167 160 168 169 176 163 141 130 131 149 145 147 145 156 175 235 109 109 59 85 71 59 45 1 348 16 343 343 25 33 16 4 342 3 331 325 312
257 267 260 264 259 260 262 261 253 154 179 139 158 166 170 167 169 131 134 132 154 131 160 123 145 147 190 159 86 87 102 151 86 81 47 31 15 24 328 42 36 44 341 346 359 351 338 332 330
244 240 255 263 242 243 246 258 235 160 146 156 170 179 171 166 142 148 139 146 140 135 118 159 160 129 77 109 146 124 80 75 88 100 83 36 33 29 302 32 54 13 296 11 17 330 328 351 353
244 241 238 243 259 222 230 252 266 217 167 161 175 186 172 153 150 157 155 157 147 130 148 174 133 144 131 114 150 89 73 90 86 106 90 26 40 28 335 49 50 331 353 43 360 350 25 315 357
259 228 253 235 230 216 222 223 238 253 178 173 175 185 187 173 170 166 157 154 153 147 148 160 110 108 110 149 119 122 160 103 95 64 64 11 34 26 340 92 48 8 43 26 354 309 347 353 4
263 279 295 305 299 180 210 230 222 170 187 195 178 186 190 189 179 162 161 157 160 162 156 161 127 128 117 125 180 154 159 113 92 88 77 47 22 33 1 61 44 65 58 29 347 326 258 56 351
253 269 276 294 299 302 261 224 226 177 195 208 195 180 187 183 184 177 176 162 168 168 153 174 149 151 169 190 186 169 129 104 93 84 70 66 54 38 65 47 60 12 99 56 13 342 329 84 28
275 277 283 277 278 279 275 273 273 197 196 210 113 344 330 195 182 179 187 176 174 176 177 165 162 152 193 121 105 81 85 99 121 145 123 79 74 69 61 57 44 48 46 63 31 348 13 340 60
266 271 255 258 259 264 267 264 232 241 224 198 195 197 184 205 186 175 176 173 169 172 187 157 143 157 195 140 143 140 155 171 154 111 99 91 80 94 79 83 79 51 60 38 35 5 333 350 23
271 264 272 277 278 278 247 267 277 261 229 218 211 201 193 176 175 172 177 168 166 163 159 164 138 149 124 155 133 147 106 123 112 103 121 93 86 85 90 80 64 54 82 66 50 19 9 15 6
298 297 285 270 271 254 261 254 253 259 263 254 228 197 197 181 172 168 166 163 161 147 138 115 115 125 142 134 110 164 126 127 110 125 160 161 135 100 79 75 68 47 75 55 41 61 31 25 20
335 319 279 265 239 244 238 243 254 260 261 261 271 242 197 189 181 162 153 151 153 136 127 119 109 95 108 114 102 91 89 94 115 165 185 138 132 105 67 91 89 83 79 55 54 74 80 44 30
330 325 300 291 311 308 312 295 297 297 16 16 345 107 178 192 169 106 133 142 144 134 129 116 111 117 118 113 109 103 106 131 136 251 112 185 102 96 93 90 83 88 77 71 82 37 61 49 59
302 277 287 299 299 292 286 294 288 9 2 9 4 348 355 129 111 130 134 137 138 124 121 124 126 127 126 116 107 135 97 58 67 54 71 87 99 111 109 106 104 92 71 125 86 45 51 34 64
285 306 301 12 299 296 271 261 27 4 0 354 350 357 45 95 115 119 116 121 117 115 118 118 129 128 124 117 123 98 85 82 84 63 61 75 85 88 109 126 124 105 88 36 68 122 65 47 14
320 311 311 260 229 298 308 60 13 10 10 354 336 334 93 110 115 118 116 110 112 122 124 130 119 127 139 146 110 104 81 62 67 79 69 86 93 117 128 129 108 97 84 89 80 93 103 68 48
282 326 351 337 289 266 261 272 53 27 2 360 342 334 325 124 119 114 112 117 126 125 129 105 82 84 81 83 78 70 68 71 62 48 44 33 94 100 110 92 92 94 74 53 44 30 51 82 101